When you browse on this site, cookies collect data to enhance your experience and personalize the content and advertising you see.
Visit our Privacy Policy to learn more. By continuing to use the site, you agree to this use of cookies and data.
  • In Austria
  • List of Countries
  • For 7 days
  • Water Temperature
  • Weather Map
  • News
  • Weather Widgets
  • user-avatar
    Login

    Hourly Weather Varkkallai

    Today, 27 May, Wednesday

    Time Temperature Precipitation Wind Pressure Humidity
    00:00 +29°C° 0.1 mm 3 mps 754 mmHg 93%
    01:00 +29°C° 0.1 mm 3 mps 753 mmHg 93%
    02:00 +29°C° 0.1 mm 3 mps 753 mmHg 92%
    03:00 +29°C° 0.2 mm 3 mps 753 mmHg 92%
    04:00 +29°C° 0.2 mm 3 mps 753 mmHg 92%
    05:00 +29°C° 0 mm 3 mps 753 mmHg 92%
    06:00 +29°C° 0.4 mm 2 mps 753 mmHg 89%
    07:00 +30°C° 0.4 mm 2 mps 754 mmHg 85%
    08:00 +31°C° 0.4 mm 2 mps 755 mmHg 82%
    09:00 +33°C° 0.3 mm 3 mps 755 mmHg 77%
    10:00 +34°C° 0.3 mm 3 mps 755 mmHg 72%
    11:00 +35°C° 0.3 mm 3 mps 755 mmHg 67%
    12:00 +34°C° 0.6 mm 3 mps 754 mmHg 68%
    13:00 +34°C° 0.6 mm 4 mps 753 mmHg 69%
    14:00 +34°C° 0.6 mm 4 mps 752 mmHg 70%
    15:00 +33°C° 1.2 mm 4 mps 752 mmHg 72%
    16:00 +33°C° 1.2 mm 4 mps 752 mmHg 75%
    17:00 +32°C° 1.2 mm 4 mps 752 mmHg 77%
    18:00 +31°C° 1.2 mm 3 mps 753 mmHg 80%
    19:00 +30°C° 1.2 mm 3 mps 753 mmHg 84%
    20:00 +29°C° 1.2 mm 2 mps 754 mmHg 88%
    21:00 +29°C° 0.4 mm 2 mps 754 mmHg 88%
    22:00 +29°C° 0.4 mm 2 mps 754 mmHg 89%
    23:00 +29°C° 0.4 mm 2 mps 755 mmHg 90%

    Tomorrow, 28 May, Thursday

    Time Temperature Precipitation Wind Pressure Humidity
    00:00 +29°C° 0 mm 2 mps 754 mmHg 90%
    01:00 +29°C° 0 mm 2 mps 753 mmHg 90%
    02:00 +29°C° 0 mm 2 mps 752 mmHg 90%
    03:00 +28°C° 0 mm 2 mps 752 mmHg 90%
    04:00 +28°C° 0 mm 2 mps 753 mmHg 90%
    05:00 +28°C° 0 mm 2 mps 753 mmHg 90%
    06:00 +29°C° 0.1 mm 2 mps 753 mmHg 87%
    07:00 +30°C° 0.1 mm 2 mps 754 mmHg 83%
    08:00 +31°C° 0.1 mm 2 mps 754 mmHg 80%
    09:00 +33°C° 0 mm 3 mps 754 mmHg 75%
    10:00 +34°C° 0 mm 3 mps 754 mmHg 70%
    11:00 +34°C° 0 mm 3 mps 754 mmHg 65%
    12:00 +34°C° 0 mm 3 mps 754 mmHg 64%
    13:00 +34°C° 0 mm 4 mps 753 mmHg 62%
    14:00 +35°C° 0 mm 4 mps 752 mmHg 60%
    15:00 +34°C° 0 mm 4 mps 752 mmHg 64%
    16:00 +33°C° 0 mm 4 mps 752 mmHg 68%
    17:00 +31°C° 0 mm 3 mps 752 mmHg 72%
    18:00 +31°C° 0 mm 3 mps 753 mmHg 76%
    19:00 +30°C° 0 mm 3 mps 753 mmHg 81%
    20:00 +29°C° 0 mm 2 mps 754 mmHg 85%
    21:00 +29°C° 0.2 mm 3 mps 754 mmHg 86%
    22:00 +29°C° 0.2 mm 3 mps 754 mmHg 87%
    23:00 +29°C° 0.2 mm 3 mps 754 mmHg 89%

    Day after tomorrow, 29 May, Friday

    Time Temperature Precipitation Wind Pressure Humidity
    00:00 +29°C° 0.5 mm 3 mps 753 mmHg 89%
    01:00 +28°C° 0.5 mm 3 mps 753 mmHg 90%
    02:00 +28°C° 0.5 mm 3 mps 752 mmHg 90%
    03:00 +28°C° 0 mm 3 mps 752 mmHg 90%
    04:00 +28°C° 0 mm 2 mps 752 mmHg 91%
    05:00 +28°C° 0 mm 2 mps 752 mmHg 91%
    06:00 +28°C° 0 mm 2 mps 753 mmHg 88%
    07:00 +29°C° 0 mm 1 mps 753 mmHg 85%
    08:00 +30°C° 0 mm 1 mps 754 mmHg 82%
    09:00 +31°C° 0 mm 1 mps 754 mmHg 77%
    10:00 +31°C° 0 mm 2 mps 754 mmHg 72%
    11:00 +32°C° 0 mm 2 mps 754 mmHg 67%
    12:00 +32°C° 0.1 mm 2 mps 753 mmHg 67%
    13:00 +32°C° 0.1 mm 2 mps 753 mmHg 67%
    14:00 +33°C° 0.1 mm 3 mps 752 mmHg 66%
    15:00 +33°C° 0.1 mm 3 mps 752 mmHg 70%
    16:00 +31°C° 0.1 mm 3 mps 752 mmHg 73%
    17:00 +31°C° 0.1 mm 3 mps 752 mmHg 76%
    18:00 +30°C° 0.1 mm 3 mps 753 mmHg 79%
    19:00 +30°C° 0.1 mm 3 mps 753 mmHg 83%
    20:00 +29°C° 0.1 mm 2 mps 754 mmHg 86%
    21:00 +29°C° 0.5 mm 2 mps 754 mmHg 86%
    22:00 +29°C° 0.5 mm 2 mps 754 mmHg 87%
    23:00 +29°C° 0.5 mm 2 mps 754 mmHg 88%

    30 May, Saturday

    Time Temperature Precipitation Wind Pressure Humidity
    00:00 +29°C° 0.4 mm 2 mps 754 mmHg 88%
    01:00 +28°C° 0.4 mm 2 mps 753 mmHg 88%
    02:00 +28°C° 0.4 mm 2 mps 753 mmHg 88%
    03:00 +28°C° 0.2 mm 2 mps 753 mmHg 88%
    04:00 +28°C° 0.2 mm 2 mps 753 mmHg 88%
    05:00 +28°C° 0.2 mm 2 mps 753 mmHg 87%
    06:00 +29°C° 0.2 mm 3 mps 754 mmHg 86%
    07:00 +29°C° 0.2 mm 3 mps 754 mmHg 84%
    08:00 +30°C° 0.2 mm 4 mps 755 mmHg 82%
    09:00 +30°C° 0.1 mm 4 mps 755 mmHg 79%
    10:00 +31°C° 0.1 mm 3 mps 755 mmHg 77%
    11:00 +31°C° 0.1 mm 3 mps 755 mmHg 74%
    12:00 +31°C° 0.1 mm 3 mps 754 mmHg 74%
    13:00 +31°C° 0.1 mm 3 mps 754 mmHg 74%
    14:00 +32°C° 0.1 mm 4 mps 753 mmHg 74%
    15:00 +31°C° 0.1 mm 3 mps 753 mmHg 76%
    16:00 +30°C° 0.1 mm 3 mps 753 mmHg 78%
    17:00 +30°C° 0.1 mm 3 mps 753 mmHg 80%
    18:00 +29°C° 0 mm 3 mps 754 mmHg 82%
    19:00 +29°C° 0 mm 3 mps 754 mmHg 84%
    20:00 +28°C° 0 mm 2 mps 755 mmHg 86%
    21:00 +28°C° 0 mm 2 mps 755 mmHg 87%
    22:00 +28°C° 0 mm 2 mps 755 mmHg 87%
    23:00 +28°C° 0 mm 2 mps 755 mmHg 88%

    31 May, Sunday

    Time Temperature Precipitation Wind Pressure Humidity
    00:00 +28°C° 0 mm 2 mps 755 mmHg 89%
    01:00 +28°C° 0 mm 2 mps 754 mmHg 90%
    02:00 +28°C° 0 mm 2 mps 754 mmHg 90%
    03:00 +28°C° 0 mm 2 mps 754 mmHg 90%
    04:00 +27°C° 0 mm 2 mps 754 mmHg 90%
    05:00 +27°C° 0 mm 2 mps 754 mmHg 90%
    06:00 +28°C° 0 mm 2 mps 754 mmHg 86%
    07:00 +29°C° 0 mm 3 mps 755 mmHg 82%
    08:00 +30°C° 0 mm 3 mps 755 mmHg 78%
    09:00 +31°C° 0.1 mm 3 mps 755 mmHg 75%
    10:00 +33°C° 0.1 mm 4 mps 755 mmHg 71%
    11:00 +34°C° 0.1 mm 4 mps 755 mmHg 67%
    12:00 +34°C° 0.1 mm 4 mps 755 mmHg 68%
    13:00 +34°C° 0.1 mm 4 mps 754 mmHg 68%
    14:00 +34°C° 0.1 mm 5 mps 753 mmHg 68%
    15:00 +33°C° 0 mm 5 mps 753 mmHg 71%
    16:00 +32°C° 0 mm 5 mps 753 mmHg 73%
    17:00 +32°C° 0 mm 5 mps 753 mmHg 76%
    18:00 +30°C° 0 mm 5 mps 754 mmHg 79%
    19:00 +30°C° 0 mm 5 mps 754 mmHg 81%
    20:00 +29°C° 0 mm 6 mps 755 mmHg 84%
    21:00 +29°C° 0 mm 5 mps 755 mmHg 85%
    22:00 +29°C° 0 mm 4 mps 755 mmHg 85%
    23:00 +28°C° 0 mm 4 mps 755 mmHg 86%

    1 June, Monday

    Time Temperature Precipitation Wind Pressure Humidity
    00:00 +28°C° 0 mm 3 mps 755 mmHg 87%
    01:00 +28°C° 0 mm 3 mps 754 mmHg 88%
    02:00 +28°C° 0 mm 3 mps 754 mmHg 88%
    03:00 +28°C° 1 mm 3 mps 754 mmHg 89%
    04:00 +28°C° 1 mm 3 mps 754 mmHg 89%
    05:00 +27°C° 1 mm 3 mps 754 mmHg 90%
    06:00 +28°C° 1.6 mm 3 mps 755 mmHg 85%
    07:00 +29°C° 1.6 mm 3 mps 755 mmHg 81%
    08:00 +30°C° 1.6 mm 4 mps 756 mmHg 76%
    09:00 +32°C° 1 mm 4 mps 756 mmHg 73%
    10:00 +33°C° 1 mm 4 mps 756 mmHg 70%
    11:00 +33°C° 1 mm 4 mps 756 mmHg 67%
    12:00 +33°C° 0.2 mm 4 mps 755 mmHg 67%
    13:00 +33°C° 0.2 mm 4 mps 754 mmHg 68%
    14:00 +33°C° 0.2 mm 4 mps 754 mmHg 68%
    15:00 +33°C° 0.2 mm 3 mps 753 mmHg 71%
    16:00 +31°C° 0.2 mm 3 mps 753 mmHg 73%
    17:00 +31°C° 0.2 mm 3 mps 753 mmHg 76%
    18:00 +30°C° 0 mm 3 mps 754 mmHg 79%
    19:00 +29°C° 0 mm 2 mps 754 mmHg 82%
    20:00 +29°C° 0 mm 2 mps 755 mmHg 85%
    21:00 +29°C° 0.1 mm 2 mps 755 mmHg 85%
    22:00 +28°C° 0.1 mm 2 mps 755 mmHg 86%
    23:00 +28°C° 0.1 mm 1 mps 755 mmHg 86%
    Show more